SCP
0 0 -0 -0 -0 -0 -0 -0 -0 -0 -0 -0 -0 -0 -0 -0 -0 -0 -0 -0 -0 -0 -0 -0 -0 -0 -0 -0 -0 -0 -0 -0 -0 -0 0 0 0 0 0 0 0 0 0
0 0 0 -0 -0 -0 -0 -0 -0 -0 -0 -0 -0 -0 -0 -0 0 -0 -0 0 0 0 -0 -0 -0 -0 -0 -0 -0 -0 -0 -0 0 0 0 0 0 0 0 0 0 0 0
0 -0 0 -0 -0 -0 -0 -0 -0 -0 -0 -0 -0 -0 -0 -0 -0 -0 -0 -0 0 0 -0 -0 -0 -0 -0 -0 -0 -0 -0 -0 0 0 0 0 0 0 0 0 0 0 0
0 0 0 -0 -0 -0 -0 -0 -0 -0 -0 -0 -0 -0 -0 -0 -0 -0 -0 -0 -0 -0 0 0 -0 -0 -0 -0 -0 -0 0 0 0 0 0 0 0 0 0 0 0 0 0
0 -0 0 -0 -0 0 0 -0 -0 -0 -0 -0 -0 0 0 -0 -0 -0 -0 -0 -0 -0 0 -0 -0 -0 -0 -0 -0 -0 0 0 0 0 0 0 0 0 0 0 0 0 0
0 0 0 -0 -0 0 0 -0 -0 -0 -0 -0 -0 -0 0 -0 -0 -0 -0 -0 -0 0 0 -0 -0 -0 -0 -0 -0 -0 0 0 0 0 0 0 0 0 0 0 0 0 0
0 0 0 0 0 0 0 -0 -0 -0 -0 -0 -0 -0 -0 -0 -0 -0 -0 -0 -0 -0 -0 -0 -0 -0 -0 -0 -0 0 0 0 0 0 0 0 0 0 0 0 0 0 0
0 0 0 0 0 0 -0 -0 -0 -0 0 0 -0 -0 -0 -0 -0 -0 -0 0 -0 -0 -0 -0 -0 -0 -0 -0 0 0 0 0 0 0 0 0 0 0 0 0 0 0 0
0 0 0 0 0 -0 -0 -0 -0 -0 -0 -0 -0 -0 -0 -0 -0 -0 -0 0 -0 -0 -0 -0 -0 -0 -0 0 0 0 0 0 0 0 0 0 0 0 0 0 0 0 0
0 0 0 0 0 0 0 -0 -0 -0 0 0 0 0 0 0 0 0 0 0 0 -0 -0 0 0 0 0 0 0 0 0 0 0 0 0 0 0 0 0 0 0 0 0
0 0 0 0 0 0 -0 0 0 0 0 0 0 0 0 0 0 0 0 0 0 0 0 0 0 0 -0 0 0 0 0 -0 0 0 0 0 0 0 0 0 0 0 0
0 0 0 0 0 0 -0 0 0 0 0 0 0 0 0 0 0 0 0 0 0 0 0 0 0 -0 -0 -0 -0 0 -0 0 0 0 0 0 0 0 0 0 0 0 0
0 0 0 0 -0 -0 -0 0 0 0 0 0 0 0 0 0 0 0 0 0 0 -0 -0 -0 -0 -0 -0 -0 -0 0 -0 0 0 0 0 0 0 0 0 0 0 0 0
-0 0 0 -0 -0 -0 0 0 0 0 0 0 0 0 0 0 0 0 0 0 0 0 -0 -0 -0 -0 -0 0 0 0 0 0 0 0 0 0 0 0 0 0 0 0 0
0 0 -0 -0 -0 0 0 0 0 0 0 0 0 0 0 0 0 0 0 0 0 0 0 -0 -0 -0 0 0 0 0 0 0 0 0 0 0 0 0 0 0 0 0 0
-0 -0 -0 -0 0 0 0 0 0 0 0 0 0 0 0 0 0 0 0 0 0 0 0 -0 -0 -0 0 0 0 0 0 0 0 0 0 0 0 0 0 0 0 0 0
-0 -0 -0 -0 0 0 0 0 0 0 0 0 0 0 0 0 0 0 0 0 0 0 0 0 0 0 0 0 0 0 0 0 0 0 0 0 0 0 0 0 0 0 0
0 0 0 0 0 0 0 0 0 0 0 0 0 0 0 0 0 0 0 0 0 0 0 0 0 0 0 0 0 0 0 0 0 0 0 0 0 0 0 0 0 0 0
0 0 0 0 0 0 0 0 0 0 0 0 0 0 0 0 0 0 0 0 0 0 0 0 0 0 0 0 0 0 0 0 0 0 0 0 0 0 0 0 0 0 0
0 0 0 0 0 0 0 0 0 0 0 0 0 0 0 0 0 0 0 0 0 0 0 0 0 0 0 0 0 0 0 0 0 0 0 0 0 0 0 0 0 0 -0
0 0 0 0 0 0 0 0 0 0 0 0 0 0 0 0 0 0 0 0 0 0 0 0 0 0 0 0 0 0 0 0 0 0 0 0 0 0 0 0 0 0 0
0 0 0 0 0 0 0 0 0 0 0 0 0 0 0 0 0 0 0 0 0 0 0 0 0 0 0 0 0 0 0 0 0 0 0 0 0 0 0 0 0 0 0
0 0 0 0 0 0 0 0 0 0 0 0 0 0 0 0 0 0 0 0 0 0 0 0 0 0 0 0 0 0 0 0 0 0 0 0 0 0 0 0 0 0 0
0 0 0 0 0 0 0 0 0 0 0 0 0 0 0 0 0 0 0 0 0 0 0 0 0 0 0 0 0 0 0 0 0 0 0 0 0 0 0 0 0 0 0
0 0 0 0 0 0 0 0 0 0 0 0 0 0 0 0 0 0 0 0 0 0 0 0 0 0 0 0 0 0 0 0 0 0 0 0 0 0 0 0 0 0 0
0 0 0 0 0 0 0 0 0 0 0 0 0 0 0 0 0 0 0 0 0 0 0 0 0 0 0 0 0 0 0 0 0 0 0 0 0 0 0 0 0 0 0
Wind_Speed_500mb
12 14 12 15 12 8 9 19 17 18 25 22 33 32 36 41 43 38 28 27 28 25 29 33 37 37 32 32 35 31 36 37 39 42 38 32 42 43 37 35 37 37 34
6 10 14 13 5 7 20 14 13 20 25 26 28 45 42 40 33 20 20 20 22 31 36 33 36 36 37 34 34 36 33 33 30 24 35 41 39 45 41 34 36 37 36
9 15 10 8 11 17 12 11 18 20 26 27 28 35 42 46 22 19 14 26 33 37 38 38 37 35 37 34 31 29 28 29 32 39 46 42 48 45 46 46 46 45 35
12 10 11 17 14 11 12 19 17 19 24 28 30 32 35 28 19 18 24 33 34 34 37 37 38 38 35 31 30 29 28 32 40 40 38 41 47 49 52 54 52 51 48
14 10 14 7 5 10 15 18 16 19 25 30 34 25 29 21 15 19 35 33 36 35 36 34 36 31 30 36 37 34 34 39 45 43 44 49 49 50 50 48 49 50 47
11 7 12 7 14 20 13 15 15 20 23 32 33 29 30 14 26 33 34 34 37 37 41 40 40 40 40 39 36 33 34 44 39 38 47 49 50 49 48 48 49 50 48
9 9 8 13 13 15 17 16 17 19 25 31 30 38 24 22 30 34 36 39 42 42 43 44 45 43 40 39 37 37 42 40 41 42 46 49 52 51 51 49 51 50 51
7 8 10 14 12 14 18 17 18 20 23 29 34 35 24 23 28 32 39 42 43 44 45 45 45 43 41 41 42 42 36 38 41 44 43 50 52 52 51 49 50 51 52
8 9 11 11 14 17 18 19 21 22 25 26 28 28 27 30 32 38 40 41 42 44 45 44 43 43 42 44 43 39 36 39 41 42 45 49 49 50 50 50 51 53 53
11 10 11 12 15 17 19 20 22 23 27 28 29 31 35 32 32 37 39 40 41 42 43 42 42 42 43 43 41 39 41 43 42 42 47 51 51 51 51 51 52 53 55
10 11 12 13 14 16 21 21 23 23 26 30 30 30 31 27 30 33 37 38 39 41 41 41 39 39 42 42 41 46 48 47 49 51 51 50 51 51 52 54 53 53 55
9 12 13 13 13 16 20 22 23 22 25 26 26 26 26 26 28 31 34 35 36 38 38 38 37 39 42 46 47 49 49 49 51 54 53 51 51 52 54 54 54 54 55
10 10 12 12 11 15 19 21 22 23 24 24 23 25 25 25 27 27 28 29 32 34 35 35 37 41 45 46 48 48 49 50 50 52 52 53 53 53 54 54 56 58 58
10 10 11 12 13 16 20 21 21 22 23 23 23 23 22 23 23 24 24 26 27 30 32 34 37 39 42 45 46 47 49 50 50 50 53 54 54 56 56 56 58 59 60
12 10 11 13 14 16 17 18 18 20 21 22 21 20 21 20 20 20 21 22 24 27 30 32 33 35 39 41 44 46 47 48 50 51 52 55 58 60 60 62 62 61 61
14 13 12 13 12 13 15 17 17 18 19 19 19 18 17 18 17 17 17 18 20 24 26 28 30 32 34 38 40 43 44 46 49 52 52 55 58 60 63 63 64 67 65
17 16 13 12 13 13 14 15 15 17 17 17 17 17 16 15 15 15 15 15 16 19 22 24 26 30 31 32 36 39 42 45 48 51 54 57 58 60 63 66 72 72 73
24 19 15 14 14 13 13 15 15 16 16 17 17 16 15 15 14 13 13 12 13 15 18 21 22 24 27 27 29 33 40 43 45 48 53 55 56 59 62 67 71 75 79
28 24 21 18 15 16 16 16 16 16 16 16 16 16 16 15 14 13 12 11 10 11 13 16 19 21 23 24 23 27 33 40 43 43 48 50 53 57 60 65 69 75 79
33 29 27 23 20 19 18 17 17 17 16 17 17 17 17 16 15 12 12 11 9 8 8 13 16 18 21 21 15 18 24 33 40 40 42 44 48 53 58 63 69 74 77
40 36 31 28 24 22 21 21 19 18 18 18 18 17 17 16 15 13 12 11 9 7 5 9 12 17 22 23 18 19 19 24 36 36 38 40 45 51 55 61 67 72 75
45 40 37 33 30 27 26 25 21 20 20 18 19 19 18 17 16 14 13 12 11 8 5 4 8 12 18 23 19 11 5 20 25 32 33 38 42 49 54 60 66 71 75
52 48 42 37 34 32 29 25 23 21 20 21 21 20 19 18 16 16 15 13 12 11 8 3 2 6 9 16 20 13 4 4 10 20 30 35 41 46 51 58 65 70 74
56 51 46 43 39 35 31 28 24 23 22 23 22 20 20 19 18 17 16 15 14 12 9 6 3 2 5 8 10 15 14 12 3 5 27 31 35 44 51 55 61 66 71
56 55 52 47 42 38 35 32 28 27 26 24 23 22 20 20 19 18 17 16 15 13 11 9 5 1 2 3 5 5 10 13 11 8 7 20 26 38 46 54 57 63 68
58 58 57 51 46 41 39 36 32 29 26 25 24 23 22 21 20 19 18 16 15 14 13 10 7 5 4 4 5 7 9 9 9 10 10 17 25 34 38 50 54 60 64
Wind_Direction_500mb
2 12 18 55 49 6 41 75 64 57 67 69 67 61 83 75 64 71 69 63 65 58 64 57 54 54 55 57 61 66 67 75 64 67 63 58 43 36 25 23 27 24 18
11 26 46 60 36 20 71 85 85 72 80 68 80 93 80 70 71 68 59 64 53 63 57 55 57 57 53 56 64 64 64 62 61 64 46 38 34 27 21 10 12 9 10
44 49 8 57 41 65 56 81 86 71 84 74 81 96 79 71 81 65 74 64 62 56 56 54 54 53 56 55 63 62 55 50 46 36 44 31 28 22 19 19 15 11 354
66 58 45 68 71 77 76 69 75 82 92 89 84 98 87 79 74 72 68 72 67 60 58 57 54 51 49 48 54 52 44 48 55 44 43 39 33 27 26 25 27 24 21
73 54 80 100 144 111 88 94 78 87 95 89 86 76 86 67 83 72 76 76 69 65 60 56 53 49 40 45 48 46 49 57 48 43 43 43 34 27 25 24 21 19 18
85 69 94 90 80 96 79 89 83 87 99 98 90 93 81 72 76 78 74 73 66 63 57 53 48 44 42 46 51 54 57 58 52 45 50 47 39 28 24 22 21 20 17
88 54 77 68 69 74 85 80 81 94 108 116 106 98 104 89 80 78 73 70 66 62 56 51 48 46 46 50 53 52 57 60 51 42 52 41 35 28 25 22 21 18 16
83 86 64 64 67 65 74 84 91 100 111 124 119 113 110 109 91 84 78 72 66 59 54 50 48 46 48 52 51 49 46 52 46 47 47 42 31 24 21 19 19 18 17
100 92 81 79 73 70 74 88 97 106 106 109 116 115 102 93 88 83 81 74 67 60 54 52 50 49 52 52 50 47 44 49 46 38 41 44 31 25 21 20 15 14 13
112 104 100 84 74 74 87 101 106 105 106 107 104 95 93 87 89 88 81 74 68 62 57 55 53 52 54 52 49 48 47 47 45 42 40 38 30 26 21 20 17 15 13
119 120 101 82 83 94 101 105 107 110 112 116 105 99 93 92 88 85 82 76 69 64 59 58 57 55 55 53 50 48 47 46 42 39 36 35 30 25 22 20 18 15 14
137 124 110 91 89 103 112 114 119 122 122 118 111 107 106 99 95 89 84 77 70 66 62 60 58 56 54 50 47 47 47 45 43 39 35 33 30 25 22 19 16 15 13
150 128 115 104 107 121 123 126 130 131 124 122 121 118 111 107 98 92 87 82 77 70 67 62 58 55 52 49 48 47 48 45 44 40 36 32 27 23 19 17 15 15 13
147 140 134 135 135 133 136 138 137 136 135 134 132 127 116 110 104 100 94 87 82 74 68 61 57 54 52 49 47 46 47 45 44 39 34 29 27 24 21 18 17 16 14
165 153 159 160 144 143 143 141 144 149 150 146 143 140 128 120 113 108 102 93 86 77 68 62 57 55 52 49 45 46 45 44 43 38 33 30 29 27 26 23 21 17 15
181 174 176 171 153 149 151 153 157 160 161 157 153 149 141 133 125 118 109 99 89 80 71 63 57 55 51 48 43 44 43 44 41 38 36 35 34 31 31 28 26 22 18
193 191 187 179 169 168 167 163 167 171 168 166 165 162 155 147 138 131 120 107 95 84 73 64 55 50 46 43 41 40 39 39 38 35 37 38 39 38 36 34 33 28 24
204 198 195 194 186 183 182 178 180 181 176 176 175 173 168 161 155 147 137 123 106 88 73 62 51 46 42 38 38 38 37 35 34 34 38 38 37 38 38 37 34 32 28
208 205 205 203 196 196 194 190 190 190 186 184 183 183 178 174 170 163 154 143 124 100 77 63 51 43 35 31 30 33 35 34 33 33 39 38 37 35 34 34 33 31 28
210 210 210 207 204 204 200 199 198 196 194 193 192 191 188 186 182 175 168 161 145 118 91 66 51 41 35 26 25 30 31 31 30 33 39 37 36 35 33 31 30 30 26
212 212 213 211 209 208 205 203 200 201 201 201 200 198 196 195 192 189 182 176 170 155 116 69 48 38 36 28 31 8 18 17 25 30 36 37 35 33 31 30 29 27 24
216 214 215 212 211 210 208 205 205 205 207 206 205 204 202 200 200 199 194 189 188 182 162 90 48 42 40 36 30 53 338 346 356 23 31 35 33 31 29 28 27 26 24
215 214 215 214 212 212 211 206 206 208 209 209 208 207 205 206 205 204 202 199 197 196 192 170 62 45 46 40 40 48 72 359 343 356 17 30 31 29 28 28 26 25 24
214 213 213 214 213 213 209 207 207 210 212 213 212 209 208 207 206 207 206 206 206 204 203 205 209 65 36 42 42 51 59 41 43 336 351 10 24 26 28 28 27 25 24
210 212 212 213 213 213 210 210 211 212 217 214 213 212 208 207 207 206 207 210 210 210 208 211 217 178 72 65 46 49 55 48 53 62 347 8 15 17 27 28 27 26 25
208 210 210 212 213 212 210 212 214 217 218 217 217 214 211 208 207 207 208 211 211 211 209 208 205 169 153 98 68 61 57 58 49 58 50 21 28 18 26 28 27 27 27
Wind_Speed_850mb
12 14 12 15 12 8 9 19 17 18 25 22 33 32 36 41 43 38 28 27 28 25 29 33 37 37 32 32 35 31 36 37 39 42 38 32 42 43 37 35 37 37 34
6 10 14 13 5 7 20 14 13 20 25 26 28 45 42 40 33 20 20 20 22 31 36 33 36 36 37 34 34 36 33 33 30 24 35 41 39 45 41 34 36 37 36
9 15 10 8 11 17 12 11 18 20 26 27 28 35 42 46 22 19 14 26 33 37 38 38 37 35 37 34 31 29 28 29 32 39 46 42 48 45 46 46 46 45 35
12 10 11 17 14 11 12 19 17 19 24 28 30 32 35 28 19 18 24 33 34 34 37 37 38 38 35 31 30 29 28 32 40 40 38 41 47 49 52 54 52 51 48
14 10 14 7 5 10 15 18 16 19 25 30 34 25 29 21 15 19 35 33 36 35 36 34 36 31 30 36 37 34 34 39 45 43 44 49 49 50 50 48 49 50 47
11 7 12 7 14 20 13 15 15 20 23 32 33 29 30 14 26 33 34 34 37 37 41 40 40 40 40 39 36 33 34 44 39 38 47 49 50 49 48 48 49 50 48
9 9 8 13 13 15 17 16 17 19 25 31 30 38 24 22 30 34 36 39 42 42 43 44 45 43 40 39 37 37 42 40 41 42 46 49 52 51 51 49 51 50 51
7 8 10 14 12 14 18 17 18 20 23 29 34 35 24 23 28 32 39 42 43 44 45 45 45 43 41 41 42 42 36 38 41 44 43 50 52 52 51 49 50 51 52
8 9 11 11 14 17 18 19 21 22 25 26 28 28 27 30 32 38 40 41 42 44 45 44 43 43 42 44 43 39 36 39 41 42 45 49 49 50 50 50 51 53 53
11 10 11 12 15 17 19 20 22 23 27 28 29 31 35 32 32 37 39 40 41 42 43 42 42 42 43 43 41 39 41 43 42 42 47 51 51 51 51 51 52 53 55
10 11 12 13 14 16 21 21 23 23 26 30 30 30 31 27 30 33 37 38 39 41 41 41 39 39 42 42 41 46 48 47 49 51 51 50 51 51 52 54 53 53 55
9 12 13 13 13 16 20 22 23 22 25 26 26 26 26 26 28 31 34 35 36 38 38 38 37 39 42 46 47 49 49 49 51 54 53 51 51 52 54 54 54 54 55
10 10 12 12 11 15 19 21 22 23 24 24 23 25 25 25 27 27 28 29 32 34 35 35 37 41 45 46 48 48 49 50 50 52 52 53 53 53 54 54 56 58 58
10 10 11 12 13 16 20 21 21 22 23 23 23 23 22 23 23 24 24 26 27 30 32 34 37 39 42 45 46 47 49 50 50 50 53 54 54 56 56 56 58 59 60
12 10 11 13 14 16 17 18 18 20 21 22 21 20 21 20 20 20 21 22 24 27 30 32 33 35 39 41 44 46 47 48 50 51 52 55 58 60 60 62 62 61 61
14 13 12 13 12 13 15 17 17 18 19 19 19 18 17 18 17 17 17 18 20 24 26 28 30 32 34 38 40 43 44 46 49 52 52 55 58 60 63 63 64 67 65
17 16 13 12 13 13 14 15 15 17 17 17 17 17 16 15 15 15 15 15 16 19 22 24 26 30 31 32 36 39 42 45 48 51 54 57 58 60 63 66 72 72 73
24 19 15 14 14 13 13 15 15 16 16 17 17 16 15 15 14 13 13 12 13 15 18 21 22 24 27 27 29 33 40 43 45 48 53 55 56 59 62 67 71 75 79
28 24 21 18 15 16 16 16 16 16 16 16 16 16 16 15 14 13 12 11 10 11 13 16 19 21 23 24 23 27 33 40 43 43 48 50 53 57 60 65 69 75 79
33 29 27 23 20 19 18 17 17 17 16 17 17 17 17 16 15 12 12 11 9 8 8 13 16 18 21 21 15 18 24 33 40 40 42 44 48 53 58 63 69 74 77
40 36 31 28 24 22 21 21 19 18 18 18 18 17 17 16 15 13 12 11 9 7 5 9 12 17 22 23 18 19 19 24 36 36 38 40 45 51 55 61 67 72 75
45 40 37 33 30 27 26 25 21 20 20 18 19 19 18 17 16 14 13 12 11 8 5 4 8 12 18 23 19 11 5 20 25 32 33 38 42 49 54 60 66 71 75
52 48 42 37 34 32 29 25 23 21 20 21 21 20 19 18 16 16 15 13 12 11 8 3 2 6 9 16 20 13 4 4 10 20 30 35 41 46 51 58 65 70 74
56 51 46 43 39 35 31 28 24 23 22 23 22 20 20 19 18 17 16 15 14 12 9 6 3 2 5 8 10 15 14 12 3 5 27 31 35 44 51 55 61 66 71
56 55 52 47 42 38 35 32 28 27 26 24 23 22 20 20 19 18 17 16 15 13 11 9 5 1 2 3 5 5 10 13 11 8 7 20 26 38 46 54 57 63 68
58 58 57 51 46 41 39 36 32 29 26 25 24 23 22 21 20 19 18 16 15 14 13 10 7 5 4 4 5 7 9 9 9 10 10 17 25 34 38 50 54 60 64
Wind_Direction_850mb
2 12 18 55 49 6 41 75 64 57 67 69 67 61 83 75 64 71 69 63 65 58 64 57 54 54 55 57 61 66 67 75 64 67 63 58 43 36 25 23 27 24 18
11 26 46 60 36 20 71 85 85 72 80 68 80 93 80 70 71 68 59 64 53 63 57 55 57 57 53 56 64 64 64 62 61 64 46 38 34 27 21 10 12 9 10
44 49 8 57 41 65 56 81 86 71 84 74 81 96 79 71 81 65 74 64 62 56 56 54 54 53 56 55 63 62 55 50 46 36 44 31 28 22 19 19 15 11 354
66 58 45 68 71 77 76 69 75 82 92 89 84 98 87 79 74 72 68 72 67 60 58 57 54 51 49 48 54 52 44 48 55 44 43 39 33 27 26 25 27 24 21
73 54 80 100 144 111 88 94 78 87 95 89 86 76 86 67 83 72 76 76 69 65 60 56 53 49 40 45 48 46 49 57 48 43 43 43 34 27 25 24 21 19 18
85 69 94 90 80 96 79 89 83 87 99 98 90 93 81 72 76 78 74 73 66 63 57 53 48 44 42 46 51 54 57 58 52 45 50 47 39 28 24 22 21 20 17
88 54 77 68 69 74 85 80 81 94 108 116 106 98 104 89 80 78 73 70 66 62 56 51 48 46 46 50 53 52 57 60 51 42 52 41 35 28 25 22 21 18 16
83 86 64 64 67 65 74 84 91 100 111 124 119 113 110 109 91 84 78 72 66 59 54 50 48 46 48 52 51 49 46 52 46 47 47 42 31 24 21 19 19 18 17
100 92 81 79 73 70 74 88 97 106 106 109 116 115 102 93 88 83 81 74 67 60 54 52 50 49 52 52 50 47 44 49 46 38 41 44 31 25 21 20 15 14 13
112 104 100 84 74 74 87 101 106 105 106 107 104 95 93 87 89 88 81 74 68 62 57 55 53 52 54 52 49 48 47 47 45 42 40 38 30 26 21 20 17 15 13
119 120 101 82 83 94 101 105 107 110 112 116 105 99 93 92 88 85 82 76 69 64 59 58 57 55 55 53 50 48 47 46 42 39 36 35 30 25 22 20 18 15 14
137 124 110 91 89 103 112 114 119 122 122 118 111 107 106 99 95 89 84 77 70 66 62 60 58 56 54 50 47 47 47 45 43 39 35 33 30 25 22 19 16 15 13
150 128 115 104 107 121 123 126 130 131 124 122 121 118 111 107 98 92 87 82 77 70 67 62 58 55 52 49 48 47 48 45 44 40 36 32 27 23 19 17 15 15 13
147 140 134 135 135 133 136 138 137 136 135 134 132 127 116 110 104 100 94 87 82 74 68 61 57 54 52 49 47 46 47 45 44 39 34 29 27 24 21 18 17 16 14
165 153 159 160 144 143 143 141 144 149 150 146 143 140 128 120 113 108 102 93 86 77 68 62 57 55 52 49 45 46 45 44 43 38 33 30 29 27 26 23 21 17 15
181 174 176 171 153 149 151 153 157 160 161 157 153 149 141 133 125 118 109 99 89 80 71 63 57 55 51 48 43 44 43 44 41 38 36 35 34 31 31 28 26 22 18
193 191 187 179 169 168 167 163 167 171 168 166 165 162 155 147 138 131 120 107 95 84 73 64 55 50 46 43 41 40 39 39 38 35 37 38 39 38 36 34 33 28 24
204 198 195 194 186 183 182 178 180 181 176 176 175 173 168 161 155 147 137 123 106 88 73 62 51 46 42 38 38 38 37 35 34 34 38 38 37 38 38 37 34 32 28
208 205 205 203 196 196 194 190 190 190 186 184 183 183 178 174 170 163 154 143 124 100 77 63 51 43 35 31 30 33 35 34 33 33 39 38 37 35 34 34 33 31 28
210 210 210 207 204 204 200 199 198 196 194 193 192 191 188 186 182 175 168 161 145 118 91 66 51 41 35 26 25 30 31 31 30 33 39 37 36 35 33 31 30 30 26
212 212 213 211 209 208 205 203 200 201 201 201 200 198 196 195 192 189 182 176 170 155 116 69 48 38 36 28 31 8 18 17 25 30 36 37 35 33 31 30 29 27 24
216 214 215 212 211 210 208 205 205 205 207 206 205 204 202 200 200 199 194 189 188 182 162 90 48 42 40 36 30 53 338 346 356 23 31 35 33 31 29 28 27 26 24
215 214 215 214 212 212 211 206 206 208 209 209 208 207 205 206 205 204 202 199 197 196 192 170 62 45 46 40 40 48 72 359 343 356 17 30 31 29 28 28 26 25 24
214 213 213 214 213 213 209 207 207 210 212 213 212 209 208 207 206 207 206 206 206 204 203 205 209 65 36 42 42 51 59 41 43 336 351 10 24 26 28 28 27 25 24
210 212 212 213 213 213 210 210 211 212 217 214 213 212 208 207 207 206 207 210 210 210 208 211 217 178 72 65 46 49 55 48 53 62 347 8 15 17 27 28 27 26 25
208 210 210 212 213 212 210 212 214 217 218 217 217 214 211 208 207 207 208 211 211 211 209 208 205 169 153 98 68 61 57 58 49 58 50 21 28 18 26 28 27 27 27